Overview Statistics Trail Chart Weather Telemetry Raw packets
 

This is the latest recevied weather packets stored in our database for station/object W5CMS-13. If no packets are shown the sender has not sent any weather packets the latest 10 day(s).

<< 39 40 41 42 43 44 45 >>
Time Temp. Humidity Pressure Rain* Wind** Luminosity Snow
1788021317 33.89° C 52% 1017.2 hPa 0 mm - - -
1788020717 34.44° C 51% 1017.2 hPa 0 mm - - -
1788020117 33.89° C 53% 1017.2 hPa 0 mm - - -
1788019517 33.89° C 54% 1017.3 hPa 0 mm - - -
1788018916 33.33° C 55% 1017.4 hPa 0 mm - - -
1788018317 32.78° C 57% 1017.4 hPa 0 mm - - -
1788017717 32.78° C 59% 1017.3 hPa 0 mm - - -
1788017117 32.78° C 58% 1017.4 hPa 0 mm - - -
1788016517 32.78° C 60% 1017.3 hPa 0 mm - - -
1788015916 31.67° C 62% 1017.3 hPa 0 mm - - -
1788015317 31.11° C 63% 1017.3 hPa 0 mm - - -
1788014717 30.56° C 64% 1017.3 hPa 0 mm - - -
1788014116 30.56° C 65% 1017.3 hPa 0 mm - - -
1788013517 30° C 66% 1017.3 hPa 0 mm - - -
1788012916 29.44° C 67% 1017.2 hPa 0 mm - - -
1788012316 28.89° C 68% 1017.2 hPa 0 mm - - -
1788011717 28.89° C 69% 1017.4 hPa 0 mm - - -
1788011118 28.89° C 70% 1017.3 hPa 0 mm - - -
1788010516 28.33° C 72% 1017.2 hPa 0 mm - - -
1788009917 27.78° C 74% 1017.3 hPa 0 mm - - -
1788009317 27.22° C 74% 1017.3 hPa 0 mm - - -
1788008716 26.67° C 75% 1017.3 hPa 0 mm - - -
1788008117 26.67° C 76% 1017.2 hPa 0 mm - - -
1788007517 26.11° C 77% 1017 hPa 0 mm - - -
1788006916 26.11° C 78% 1016.9 hPa 0 mm - - -

* Rain latest hour (hover to see other rain measurements)
** Current wind speed in m/s (hover to see current wind gust speed)